Observer details:
291 LPL/Spacewatch II.  Observer R. S. McMillan.  1.8-m f/2.7 reflector + CCD.
C51 WISE.  Measurers A. K. Mainzer, E. L. Wright, J. M. Bauer, T. Grav,
    J. W. Dailey, J. R. Masiero, R. M. Cutri, R. S. McMillan, R. G. Walker.
    (http://wise.ssl.berkeley.edu/mission_sci.html).
H21 Astronomical Research Observatory, Westfield.  Observer R. Holmes.
    Measurer S. Foglia.
H36 Sandlot Observatory, Scranton.  Observer G. Hug.  0.56-m reflector + CCD.

Orbital elements:
2010 OE101
Epoch 2010 July 23.0 TT = JDT 2455400.5                 MPC
M 354.87503              (2000.0)            P               Q
n   0.14964171     Peri.  174.44578     +0.98510773     -0.15074265
a   3.5137237      Node   195.00734     +0.14288382     +0.98527369
e   0.6153430      Incl.   18.62534     +0.09563984     +0.08069947
P   6.59           H   17.8           G   0.15           U   6
Residuals in seconds of arc
100725 C51  0.0   0.1-    100727 C51  0.2-  0.0     100728 C51  0.2-  0.1+
100725 C51  0.1+  0.1-    100727 C51  0.0   0.2+    100729 C51  0.1-  0.2+
100725 C51  0.1-  0.2+    100727 C51  0.3-  0.2+    100729 C51  0.2-  0.3+
100725 C51  0.2-  0.1+    100727 C51  0.1-  0.1+    100729 C51  0.3-  0.2+
100725 C51  0.1-  0.0     100727 C51  0.4-  0.2+    100729 H36  0.4-  1.9-
100725 C51  0.2+  0.0     100727 C51  0.2-  0.0     100729 H36  2.3+  2.6-
100725 C51  0.1+  0.1-    100727 C51  0.2-  0.1+    100729 C51  0.5-  0.2+
100725 C51  0.1+  0.1-    100727 C51  0.3-  0.4+    100729 C51  0.3-  0.3+
100726 C51  0.2+  0.1-    100727 C51  0.1-  0.3+    100729 C51  0.5-  0.1+
100726 C51  0.1-  0.1-    100727 C51  0.2-  0.1+    100729 C51  0.4-  0.3+
100726 C51  0.2+  0.1-    100728 C51  0.1-  0.1+    100729 C51  0.6-  0.0
100726 C51  0.1-  0.1+    100728 C51  0.0   0.0     100730 C51  0.5-  0.0
100726 C51  0.1-  0.0     100728 C51  0.4-  0.3+    100730 C51  0.2-  0.2+
100726 C51  0.1-  0.1+    100728 C51  0.2-  0.2+    100730 C51  0.1-  0.3+
100726 C51  0.2+  0.1+    100728 C51  0.2+  0.4+    100802 H21  0.2-  0.2+
100727 C51  0.1+  0.1+    100728 C51  0.5-  0.0     100802 H21  0.1-  0.7+
100727 C51  0.4-  0.2-    100728 H36  0.4-  0.7-    100802 H21  0.6+  0.6+
100727 C51  0.0   0.1+    100728 C51  0.3-  0.0     100803 291  0.3+  0.2-
100727 C51  0.0   0.0     100728 H36  0.3-  0.3+    100803 291  0.2-  1.0+
100727 C51  0.1-  0.1+    100728 C51  0.3-  0.1+    100803 291  0.1-  0.7-
100727 C51  0.1-  0.1-    100728 C51  0.4-  0.1+    100803 291  1.2-  0.1+
100727 C51  0.2-  0.1+    100728 C51  0.4-  0.1+    100803 291  0.4-  0.0
100727 C51  0.1-  0.2+    100728 C51  0.2-  0.2-    100803 291  0.2+  0.2-

Ephemeris:
2010 OE101               a,e,i = 3.51, 0.62, 19                  q = 1.3516
Date    TT    R. A. (2000) Decl.     Delta      r     Elong.  Phase     V
2010 08 02    02 12.26   +25 20.1    0.935    1.380    90.1    47.3    20.1
2010 08 12    02 49.23   +24 53.8    0.880    1.362    91.7    48.1    20.0
2010 08 22    03 25.19   +23 27.8    0.834    1.352    93.8    48.3    19.9
2010 09 01    03 58.82   +21 03.8    0.796    1.353    96.4    47.8    19.8
2010 09 11    04 28.85   +17 48.5    0.766    1.364    99.7    46.7    19.7
2010 09 21    04 54.29   +13 52.7    0.744    1.384   103.7    44.8    19.6
2010 10 01    05 14.53   +09 30.1    0.728    1.413   108.6    42.2    19.5
2010 10 11    05 29.15   +04 55.2    0.720    1.450   114.1    38.9    19.4
2010 10 21    05 37.95   +00 24.4    0.719    1.494   120.4    35.1    19.4
2010 10 31    05 41.09   -03 45.8    0.728    1.545   127.1    30.9    19.4
2010 11 10    05 39.05   -07 18.2    0.747    1.600   133.7    26.6    19.4
2010 11 20    05 32.93   -09 57.3    0.779    1.660   139.5    22.7    19.4
2010 11 30    05 24.36   -11 33.7    0.827    1.723   143.6    19.9    19.6
2010 12 10    05 15.18   -12 05.7    0.891    1.789   145.0    18.4    19.8
2010 12 20    05 07.18   -11 40.6    0.972    1.857   143.3    18.4    20.0
2010 12 30    05 01.54   -10 31.7    1.071    1.926   139.3    19.5    20.4
2011 01 09    04 58.82   -08 53.4    1.186    1.996   133.7    20.9    20.7
2011 01 19    04 59.16   -06 59.1    1.317    2.067   127.4    22.2    21.0
2011 01 29    05 02.29   -04 59.0    1.461    2.139   120.7    23.3    21.4
2011 02 08    05 07.87   -03 00.3    1.618    2.210   114.0    24.1    21.7
2011 02 18    05 15.51   -01 07.8    1.784    2.282   107.3    24.4    22.0

Timothy B. Spahr             (C) Copyright 2010 MPC           M.P.E.C. 2010-P11

Read MPEC 2010-P10 Read MPEC 2010-P12


MPEC number:

Enter an MPEC number in one of the following forms:

  • 1997-B01 (the full form)
  • J97B01 (the packed version of the full form)
  • B01 (the abbreviated form)

